Torna al catalogo

STARLINK-37740

AttivoComunicazioniSSO
NORAD 100102·PAYLOAD·🇺🇸 United States

Lanciato Jul 21, 2026 da Vandenberg Space Force Base

Loading…

Prossimi Passaggi (prossime 24 ore)

TLE

AggiornatoSource: Space-Track

Epoca: Sep 14, 2026, 12:25 UTC

1 A0102U 26166B   26257.51749540  .00000974  00000-0  73989-5 0  9992
2 A0102  97.2825 275.6044 0001572  70.6783 289.4652 15.75182889  8662

Traccia STARLINK-37740 in tempo reale con AllMySat

Download on the App Store